www.pogodaiklimat.ru

Погода и климат >> Архив погоды >> Россия >> Чечня >> Наурская


ПОГОДА в Наурской

  • Прогноз погоды в Наурской
  • Монитор погоды в Наурской

АРХИВ ПОГОДЫ в Наурской

Время (UTC), дата Ветер
(напр.,м/с)
 
Видим.   Явления Облачность Т
(С)
Тd
(С)
f
(%)
Тe
(С)
Тes
(С)
Комфортность P
(гПа)
Po
(гПа)
Тmin
(С)
Tmax
(С)
R
(мм)
R24
(мм)
S
(см)
18 19.05 ЮВ 1 10 км 9/8 600 м
[Cb cap Ac inh]
+20.8 +16.7 77 +25 +25 комфорт 1011.5 1002.2
21 19.05 В 1 10 км 9/8 600 м
[Cb cap Ac inh]
+17.8 +15.8 88 +19 +19 1011.6 1002.2
00 20.05 В 2 10 км туман поземный 9/8 600 м
[Cb cap Ac inh]
+16.2 +15.3 94 +16 +16 1015.1 1002.6
03 20.05 штиль 0 20 км {туман} 8/5 600 м
[Cb cap Ac inh]
+18.8 +16.1 84 +20 +20 1012.4 1003.0 +16.2
06 20.05 штиль 0 20 км {туман} 10/6 600 м
[Cb cap Ac inh]
+21.8 +17.1 75 +26 +28 душно 1014.1 1004.8
09 20.05 ЮЗ 2 20 км 10/6 600 м
[Cb cap Ac inh]
+22.2 +16.8 71 +27 +29 душно 1004.8 1005.5
12 20.05 Ю 3 20 км 8/3 600 м
[Cb cap Ac inh]
+25.3 +15.4 54 +28 +32 жарко 1014.7 1005.5
15 20.05 штиль 0 20 км 6/4 600 м
[Cb cap Ac inh]
+23.6 +13.9 54 +26 +27 жарко 1015.3 1006.1 +25.3
18 20.05 штиль 0 10 км 8/0
[Ac As]
+18.8 +15.2 80 +20 +20 1016.7 1007.3
21 20.05 штиль 0 10 км туман поземный 8/0
[Ac cast]
+14.8 +13.9 94 +14 +14 1016.6 1007.0
00 21.05 штиль 0 10 км туман поземный ясно +13.4 +12.5 94 +13 +13 1017.5 1007.9
03 21.05 В 1 20 км туман поземный 6/0
[Ci sp]
+14.6 +13.7 94 +15 +16 1018.9 1009.3 +13.4
06 21.05 В 4 20 км 3/0
[Ci sp]
+22.0 +13.8 60 +25 +33 комфорт 1019.0 1009.6
09 21.05 В 5 20 км ясно +26.0 +13.0 45 +28 +38 жарко 1018.4 1009.2
12 21.05 В 8
{10}
20 км ясно +25.9 +12.2 43 +27 +30 жарко 1018.4 1009.2
15 21.05 В 7 20 км ясно +21.5 +10.1 48 +23 +23 комфорт 1018.9 1009.5 +26.0
18 21.05 В 4 10 км ясно +16.4 +8.6 60 +16 +16 1020.1 1010.6
21 21.05 В 2 10 км ясно +13.3 +10.0 80 +13 +13 1020.0 1010.3
00 22.05 В 1 10 км туман поземный ясно +10.6 +9.6 94 +10 +10 1018.7 1009.0
03 22.05 В 1 20 км {туман} 5/0
[Ac As Ci sp]
+12.6 +9.9 84 +13 +14 1017.4 1007.7 +10.6
06 22.05 В 4 20 км {туман} 3/0
[Ac und Ci sp]
+18.9 +10.8 59 +20 +26 1015.5 1006.1
09 22.05 В 5 20 км 8/0
[Ac As Ci sp]
+23.9 +12.4 49 +26 +32 жарко 1013.0 1003.8
12 22.05 В 4 20 км 8/3 600 м
[Cb cap Ac inh]
+25.2 +12.2 44 +27 +30 жарко 1011.6 1002.4
15 22.05 штиль 0 20 км 10/4 600 м
[Cb cap Ac inh]
+22.0 +10.1 47 +24 +24 комфорт 1014.1 1004.8 +25.2
18 22.05 штиль 0 10 км слаб. ливневой дождь 10/5 600 м
[Cb cap Ac inh]
+16.5 +14.9 90 +16 +16 1015.2 1005.7
21 22.05 штиль 0 10 км туман поземный {ливн. осадки} ясно +14.1 +11.1 82 +14 +14 1014.6 1005.0
00 23.05 штиль 0 10 км туман поземный {ливн. осадки} ясно +12.9 +11.8 93 +12 +12 1014.2 1004.5
03 23.05 штиль 0 20 км туман поземный ясно +13.2 +12.1 93 +13 +15 1014.0 1004.3 +12.9 3
06 23.05 З 3 20 км {туман} 5/0
[Ac und Ci fib]
+18.5 +14.2 76 +19 +27 1013.8 1004.4
09 23.05 С 2 20 км 8/3 600 м
[Cb cap Ac inh]
+23.2 +13.0 53 +26 +33 жарко 1012.2 1002.9
12 23.05 Ю 2 20 км 8/5 600 м
[Cu med, cong Ac und Ci sp]
+26.2 +11.0 39 +27 +31 жарко 1009.9 1000.8
15 23.05 СВ 5 20 км 10/5 600 м
[Cb cap Ac inh]
+19.0 +11.8 63 +20 +20 1011.0 1001.6 +26.2
18 23.05 З 2 10 км 10/5 600 м
[Cb cap Ac inh]
+16.8 +13.2 79 +17 +17 1013.0 1003.5
21 23.05 ЮЗ 2 10 км в посл. час ливневой дождь 10/5 600 м
[Cb cap Ac inh]
+15.0 +13.0 88 +15 +15 1013.6 1004.0
00 24.05 СЗ 1 10 км {ливн. осадки} 3/0
[Ac und]
+14.6 +12.8 89 +15 +15 1012.9 1003.3
03 24.05 СЗ 1 20 км 3/0
[Ac cast]
+16.1 +13.4 84 +17 +18 1012.4 1002.9 +14.6 3
06 24.05 СЗ 1 20 км ясно +23.7 +10.3 43 +25 +39 комфорт 1012.1 1002.9
09 24.05 З 2 20 км 3/3 600 м
[Cu med, cong Ac und]
+26.3 +8.7 33 +27 +40 жарко 1011.3 1002.2
12 24.05 СВ 2 20 км 8/4 600 м
[Cb cap Ac inh]
+28.1 +7.8 28 +28 +31 жарко 1010.6 1001.5
15 24.05 С 1 20 км 4/0
[Ac und Ci sp]
+26.8 +7.6 30 +27 +28 жарко 1010.6 1001.5 +28.1
18 24.05 штиль 0 10 км ясно +17.3 +12.6 74 +17 +17 1011.6 1002.1
21 24.05 В 1 10 км ясно +14.1 +12.1 88 +14 +14 1011.2 1001.7
00 25.05 штиль 0 10 км 9/3 600 м
[Cb cap Ac inh]
+13.5 +11.6 88 +13 +13 1010.1 1000.6
03 25.05 З 2 20 км 4/0
[Ci sp]
+14.1 +12.3 89 +14 +15 1010.1 1000.6 +13.5
06 25.05 В 3 20 км ясно +23.6 +12.7 50 +26 +36 жарко 1018.1 998.9
09 25.05 ЮВ 3 20 км 8/0
[Ci sp]
+27.7 +11.6 37 +29 +42 жарко 1006.2 997.1
12 25.05 В 6 20 км 6/0
[Ci sp]
+28.8 +14.5 42 +31 +35 жарко 1004.5 995.5
15 25.05 Ю 2 20 км 10/6 600 м
[Cb cap Ac inh]
+23.2 +16.1 64 +28 +28 душно 1008.3 999.1 +29.5
18 25.05 СЗ 1 10 км {ливн. осадки} 10/5 600 м
[Cb cap Ac inh]
+20.6 +15.9 74 +25 +25 комфорт 1007.7 998.4
21 25.05 СЗ 1 10 км 9/0
[Ac As]
+18.4 +15.7 84 +20 +20 1009.6 1000.2
00 26.05 З 1 10 км ясно +17.0 +14.8 87 +18 +18 1012.7 1003.2
03 26.05 З 1 20 км 8/5 600 м
[Cb cap Ac inh]
+16.5 +13.5 82 +17 +18 1013.8 1004.3 +15.8 0.0
06 26.05 СЗ 1 20 км 3/0
[Ci sp]
+23.5 +11.7 47 +25 +38 комфорт 1013.8 1004.6
09 26.05 С 3 20 км 8/5 600 м
[Cb cap Ac inh]
+27.0 +8.5 31 +27 +32 жарко 1013.0 1003.8
12 26.05 В 3 20 км 9/6 600 м
[Cb cap Ac inh]
+26.4 +8.1 31 +26 +28 жарко 1012.1 1002.9
15 26.05 СЗ 3 20 км 10/6 600 м
[Cb cap Ac inh]
+23.7 +10.3 43 +25 +25 комфорт 1013.1 1003.9 +27.8

 

Местоположение метеостанции Наурская (Чечня, Россия): широта 43.65 долгота 45.32 высота над уровнем моря 80 м.

В архиве по умолчанию представлена погода в Наурской за последнюю неделю. Архивные данные за месяц целиком и за предыдущие месяцы, начиная с января 2011 года, Вы можете получить, выбрав интересующий диапазон дат из раскрывающегося списка и нажав кнопку "Ввод!".


*Определитесь, кто Вы:
робот инопланетянин человек

Внимание! Время в таблицах - всемирное. Для получения местного времени необходимо прибавить поправку, которая равна 3 ч.

Смотрите также архив погоды в соседних городах и на ближайших метеорологических станциях:

Погода в Моздоке (Северная Осетия, Россия) (53 км)
Погода в Грозном (Чечня, Россия) (55 км)
Погода в Рощино (Ставропольский край, Россия) (56 км)
Погода в Назрани (Ингушетия, Россия) (67 км)
Погода в Терекли-Мектебе (Дагестан, Россия) (70 км)
Погода в Гудермесе (Чечня, Россия) (73 км)
Погода в Шелковской (Чечня, Россия) (86 км)
Погода в Владикавказе (Северная Осетия, Россия) (86 км)
Погода в Шатое (Чечня, Россия) (90 км)
Погода в Прохладный (Кабардино-Балкария, Россия) (103 км)

Пояснения к столбцам:

Ветер - указаны скорость ветра в м/с - средняя за 10 мин, порывы в срок и между сроками (в фигурных скобках) и направление, откуда дует ветер: С - северный, СВ - северо-восточный, В - восточный, ЮВ - юго-восточный, Ю - южный, ЮЗ - юго-западный, З - западный, СЗ - северо-западный.
Видимость - горизонтальная дальность видимости в метрах или километрах. При видимости от 1 до 10 км при отсутствии осадков обычно наблюдается дымка, при ухудшении видимости до 1 км и менее - туман. В сухую погоду видимость может ухудшаться дымом, пылью или мглою.
Явления - указаны атмосферные явления, наблюдавшиеся в срок или в последний час перед сроком; фигурными скобками обозначены явления, наблюдавшиеся между сроками (за 1-3 часа до срока); квадратными скобками обозначены град или гололедные отложения с указанием их диаметра в мм.
Облачность - указаны через наклонную черту общая и нижняя облачность в баллах и высота нижней границы облаков в метрах; квадратными скобками обозначены формы облаков: Ci - перистые, Cs - перисто-слоистые, Cc - перисто-кучевые, Ac - высококучевые, As - высокослоистые, Sc - слоисто-кучевые, Ns - слоисто-дождевые, Cu - кучевые, Cb - кучево-дождевые. Подробнее классификацию облаков см. в Атласе облаков (PDF).
T - Температура воздуха - температура, измеренная на высоте 2 м над землей.
Td - Температура точки росы - температура, при понижении до которой содержащийся в воздухе водяной пар достигнет насыщения.
f - Относительная влажность воздуха - влажноcть воздуха, измеренная на высоте 2 м над землей.
Te - Эффективная температура - температура, которую ощущает одетый по сезону человек в тени. Характеристика душности погоды. При расчете учитывается влияние влажности воздуха и скорости ветра на теплоощущения человека.
Tes - Эффективная температура на солнце - температура, которую ощущает человек, с поправкой на солнечный нагрев. Характеристика знойности погоды. Зависит от высоты солнца над горизонтом, облачности и скорости ветра. Ночью, в пасмурную погоду, а также при ветре 12 м/с и более поправка равна нулю.
P - Атмосферное давление - приведенное к уровню моря атмосферное давление.
Po - Атмосферное давление - измеренное на уровне метеостанции атмосферное давление.
Tmin - Минимальная температура - минимум температуры воздуха на высоте 2 м над землей.
Tmax - Максимальная температура - максимум температуры воздуха на высоте 2 м над землей.
R - Количество осадков - Количество выпавших осадков за период времени, мм. При наведении курсора мыши на число - период времени, за который выпало указанное количество осадков.
R24 - Количество осадков - Количество выпавших осадков за 24 часа, мм.
S - Снежный покров - Высота снежного покрова, см. При наведении курсора мыши на число - состояние снежного покрова и степень покрытия местности в баллах.